KF0ZH Weather Reports


Display with metric or nautical units.
time (UTC)temp
F
wind
direction
speed
MPH
gust
MPH
rain 1hr
in
rain 24hr
in
rain mn
in
humidity
%
barometer
mb
20260510003200 57 319 9.0 16.0 0.00 0.00 0.00 42 1010.5
20260510002202 58 1 6.0 9.0 0.00 0.00 0.00 42 1010.3
20260510001700 58 261 6.0 16.0 0.00 0.00 0.00 41 1010.3
20260510001200 58 345 7.0 12.0 0.00 0.00 0.00 42 1010.3
20260510000706 58 310 10.0 17.0 0.00 0.00 0.00 42 1010.2
20260510000200 58 344 13.0 13.0 0.00 0.00 0.00 42 1010.1
20260509235202 58 337 9.0 13.0 0.00 0.00 0.00 42 1010.0
20260509234700 58 312 6.0 11.0 0.00 0.00 0.00 41 1009.9
20260509234200 59 302 4.0 16.0 0.00 0.00 0.00 41 1009.9
20260509233702 58 1 4.0 14.0 0.00 0.00 0.00 42 1009.8
20260509233200 58 341 4.0 13.0 0.00 0.00 0.00 41 1009.8
20260509232700 58 355 4.0 14.0 0.00 0.00 0.00 40 1009.7
20260509232202 59 320 7.0 13.0 0.00 0.00 0.00 40 1009.7
20260509231700 59 320 5.0 11.0 0.00 0.00 0.00 42 1009.6
20260509231200 59 306 13.0 13.0 0.00 0.00 0.00 42 1009.6
20260509230700 58 299 9.0 11.0 0.00 0.00 0.00 42 1009.5
20260509224701 58 295 8.0 15.0 0.00 0.00 0.00 41 1009.2
20260509224200 58 327 5.0 10.0 0.00 0.00 0.00 42 1009.1
20260509223700 59 239 5.0 15.0 0.00 0.00 0.00 41 1009.1
20260509223200 58 293 3.0 10.0 0.00 0.00 0.00 42 1009.0
20260509222702 57 309 11.0 18.0 0.00 0.00 0.00 41 1009.0
20260509222206 58 8 11.0 20.0 0.00 0.00 0.00 40 1009.0
20260509221700 58 0 6.0 19.0 0.00 0.00 0.00 41 1008.8
20260509221201 58 347 5.0 14.0 0.00 0.00 0.00 41 1008.9
20260509220700 59 15 12.0 16.0 0.00 0.00 0.00 40 1008.8
20260509220200 59 324 17.0 17.0 0.00 0.00 0.00 41 1008.8
20260509215206 59 306 10.0 16.0 0.00 0.00 0.00 41 1008.8
20260509214700 59 0 5.0 13.0 0.00 0.00 0.00 43 1008.6
20260509214200 59 358 0.0 13.0 0.00 0.00 0.00 43 1008.7
20260509213700 58 315 6.0 14.0 0.00 0.00 0.00 42 1008.7
20260509212700 58 327 6.0 18.0 0.00 0.00 0.00 40 1008.7
20260509212202 59 299 7.0 16.0 0.00 0.00 0.00 42 1008.5
20260509211701 58 309 2.0 17.0 0.00 0.00 0.00 41 1008.6
20260509211200 58 334 7.0 17.0 0.00 0.00 0.00 41 1008.5
20260509210700 57 11 13.0 24.0 0.00 0.00 0.00 43 1008.5
20260509210200 59 305 20.0 22.0 0.00 0.00 0.00 41 1008.6
20260509205701 58 352 9.0 13.0 0.00 0.00 0.00 42 1008.5
20260509205202 58 302 6.0 13.0 0.00 0.00 0.00 43 1008.5
20260509204700 58 313 6.0 11.0 0.00 0.00 0.00 43 1008.4
20260509204200 58 322 5.0 14.0 0.00 0.00 0.00 42 1008.5
20260509203700 58 329 9.0 25.0 0.00 0.00 0.00 40 1008.6
20260509203200 58 326 0.0 17.0 0.00 0.00 0.00 43 1008.4
20260509202201 58 305 9.0 11.0 0.00 0.00 0.00 42 1008.3
20260509201700 59 333 0.0 14.0 0.00 0.00 0.00 45 1008.4
20260509200701 57 343 9.0 15.0 0.00 0.00 0.00 44 1008.3
20260509200231 57 8 12.0 19.0 0.00 0.00 0.00 43 1008.4
20260509200200 57 8 12.0 19.0 0.00 0.00 0.00 43 1008.4
20260509195206 58 334 8.0 14.0 0.00 0.00 0.00 45 1008.2
20260509194700 58 331 6.0 12.0 0.00 0.00 0.00 45 1008.2
20260509194200 58 344 6.0 13.0 0.00 0.00 0.00 43 1008.3
20260509193700 58 327 6.0 15.0 0.00 0.00 0.00 44 1008.0
20260509193200 57 251 9.0 10.0 0.00 0.00 0.00 45 1008.0
20260509192700 57 299 5.0 18.0 0.00 0.00 0.00 44 1008.2
20260509192201 57 0 12.0 20.0 0.00 0.00 0.00 45 1008.1
20260509191700 57 56 4.0 14.0 0.00 0.00 0.00 44 1008.0
20260509190700 57 261 15.0 18.0 0.00 0.00 0.00 45 1008.0
20260509190201 57 338 6.0 13.0 0.00 0.00 0.00 49 1007.7
20260509185700 57 354 5.0 10.0 0.00 0.00 0.00 46 1007.7
20260509185202 57 16 4.0 17.0 0.00 0.00 0.00 48 1007.9
20260509184701 56 334 17.0 17.0 0.00 0.00 0.00 47 1007.6
20260509183700 56 320 14.0 20.0 0.00 0.00 0.00 49 1007.6
20260509183200 57 4 8.0 14.0 0.00 0.00 0.00 49 1007.5
20260509182705 56 351 5.0 17.0 0.00 0.00 0.00 49 1007.6
20260509181700 56 281 6.0 22.0 0.00 0.00 0.00 49 1007.5
20260509181200 56 16 3.0 18.0 0.00 0.00 0.00 50 1007.3
20260509180700 57 331 0.0 14.0 0.00 0.00 0.00 50 1007.3
20260509180200 56 351 7.0 13.0 0.00 0.00 0.00 49 1007.3
20260509175700 56 351 0.0 11.0 0.00 0.00 0.00 51 1007.2
20260509175205 56 326 5.0 17.0 0.00 0.00 0.00 52 1007.2
20260509174701 56 358 6.0 21.0 0.00 0.00 0.00 51 1007.2
20260509174200 56 1 0.0 11.0 0.00 0.00 0.00 53 1007.3
20260509173700 56 16 8.0 22.0 0.00 0.00 0.00 52 1007.2
20260509173200 56 358 4.0 18.0 0.00 0.00 0.00 50 1007.2
20260509172701 56 358 5.0 19.0 0.00 0.00 0.00 52 1007.3
20260509171700 56 306 9.0 18.0 0.00 0.00 0.00 52 1007.0
20260509171203 56 336 12.0 13.0 0.00 0.00 0.00 52 1007.0
20260509170700 56 320 8.0 20.0 0.00 0.00 0.00 51 1007.0
20260509170200 56 336 11.0 17.0 0.00 0.00 0.00 51 1007.0
20260509165700 56 313 4.0 15.0 0.00 0.00 0.00 52 1006.9
20260509165201 56 331 5.0 16.0 0.00 0.00 0.00 51 1006.9
20260509164700 56 344 13.0 13.0 0.00 0.00 0.00 51 1006.8
20260509164200 56 275 0.0 14.0 0.00 0.00 0.00 51 1006.7
20260509163704 55 300 15.0 21.0 0.00 0.00 0.00 50 1006.8
20260509162701 55 296 7.0 18.0 0.00 0.00 0.00 52 1006.6
20260509162202 55 343 13.0 16.0 0.00 0.00 0.00 51 1006.6
20260509161700 55 296 9.0 20.0 0.00 0.00 0.00 50 1006.6
20260509161200 55 343 9.0 17.0 0.00 0.00 0.00 52 1006.6
20260509160700 55 341 6.0 17.0 0.00 0.00 0.00 53 1006.4
20260509160200 55 300 0.0 14.0 0.00 0.00 0.00 54 1006.4
20260509155703 55 278 0.0 13.0 0.00 0.00 0.00 53 1006.3
20260509155201 55 272 7.0 13.0 0.00 0.00 0.00 55 1006.4
20260509154700 55 338 4.0 14.0 0.00 0.00 0.00 58 1006.2
20260509154200 55 329 5.0 12.0 0.00 0.00 0.00 57 1006.2
20260509153659 55 340 7.0 9.0 0.00 0.00 0.00 57 1006.1
20260509153200 55 338 4.0 8.0 0.00 0.00 0.00 60 1006.0
20260509152701 54 334 6.0 17.0 0.00 0.00 0.00 58 1005.9
20260509152201 54 358 3.0 18.0 0.00 0.00 0.00 60 1006.0
20260509151700 54 21 7.0 16.0 0.00 0.00 0.00 59 1006.0
20260509151203 54 317 10.0 14.0 0.00 0.00 0.00 60 1005.9
20260509150659 53 15 4.0 13.0 0.00 0.00 0.00 63 1005.8
20260509150159 53 25 10.0 16.0 0.00 0.00 0.00 62 1005.8
20260509145659 53 340 12.0 15.0 0.00 0.00 0.00 63 1005.8
20260509145201 53 344 15.0 15.0 0.00 0.00 0.00 63 1005.8
20260509144700 53 12 7.0 14.0 0.00 0.00 0.00 68 1005.8
20260509144203 53 16 5.0 12.0 0.00 0.00 0.00 67 1005.7
20260509143700 53 358 9.0 15.0 0.00 0.00 0.00 68 1005.7
20260509143159 52 330 12.0 17.0 0.00 0.00 0.00 69 1005.5
20260509142200 52 14 11.0 18.0 0.00 0.00 0.00 71 1005.4
20260509141700 52 337 6.0 10.0 0.00 0.00 0.00 72 1005.3
20260509141200 52 315 12.0 14.0 0.00 0.00 0.00 74 1005.2
20260509140700 52 345 7.0 18.0 0.00 0.00 0.00 74 1005.2
20260509140200 52 8 7.0 10.0 0.00 0.00 0.00 77 1005.1
20260509135702 52 4 9.0 12.0 0.00 0.00 0.00 77 1004.9
20260509135200 52 337 7.0 12.0 0.00 0.00 0.00 78 1004.9
20260509134659 52 336 7.0 14.0 0.00 0.00 0.00 79 1004.9
20260509134200 52 16 6.0 9.0 0.00 0.00 0.00 80 1004.8
20260509133700 52 331 8.0 12.0 0.00 0.00 0.00 80 1004.8
20260509132700 52 344 10.0 11.0 0.00 0.00 0.00 82 1004.6
20260509132203 51 350 5.0 9.0 0.00 0.00 0.00 83 1004.5
20260509131159 52 18 1.0 8.0 0.00 0.00 0.00 83 1004.4
20260509130701 52 305 7.0 13.0 0.00 0.00 0.00 83 1004.2
20260509130200 52 313 3.0 12.0 0.00 0.00 0.00 83 1004.2
20260509125659 52 340 5.0 18.0 0.00 0.00 0.00 83 1004.1
20260509125200 51 336 12.0 21.0 0.00 0.00 0.00 84 1004.0
20260509124700 52 358 9.0 13.0 0.00 0.00 0.00 85 1003.9
20260509124200 52 331 8.0 13.0 0.00 0.00 0.00 85 1003.8
20260509123659 52 2 10.0 13.0 0.00 0.00 0.00 86 1003.8
20260509123159 52 275 4.0 8.0 0.00 0.00 0.00 85 1003.6
20260509122200 52 345 7.0 11.0 0.00 0.00 0.00 85 1003.4
20260509121159 52 239 0.0 18.0 0.00 0.00 0.00 85 1003.1
20260509120159 53 319 5.0 16.0 0.00 0.00 0.00 86 1003.1
20260509115701 53 338 5.0 11.0 0.00 0.00 0.00 85 1002.9
20260509115306 53 1 12.0 12.0 0.00 0.00 0.00 84 1002.9
20260509115201 53 1 12.0 12.0 0.00 0.00 0.00 84 1002.9
20260509114700 52 293 8.0 8.0 0.00 0.00 0.00 83 1002.8
20260509114202 52 306 6.0 9.0 0.00 0.00 0.00 83 1002.7
20260509113159 52 288 0.0 3.0 0.00 0.00 0.00 82 1002.4
20260509112737 52 209 0.0 0.0 0.00 0.00 0.00 82 1002.5
20260509112701 52 209 0.0 0.0 0.00 0.00 0.00 82 1002.5
20260509112159 52 201 0.0 2.0 0.00 0.00 0.00 82 1002.4
20260509110659 52 234 0.0 0.0 0.00 0.00 0.00 82 1002.1
20260509110159 52 234 0.0 0.0 0.00 0.00 0.00 82 1002.0
20260509105702 52 203 3.0 4.0 0.00 0.00 0.00 83 1001.9
20260509105200 52 299 0.0 0.0 0.00 0.00 0.00 81 1001.9
20260509104659 52 299 0.0 0.0 0.00 0.00 0.00 80 1001.7
20260509104159 53 299 0.0 0.0 0.00 0.00 0.00 79 1001.7
20260509103659 53 299 0.0 0.0 0.00 0.00 0.00 77 1001.7
20260509102659 53 299 0.0 0.0 0.00 0.00 0.00 74 1002.0
20260509102207 53 299 0.0 0.0 0.00 0.00 0.00 73 1001.4
20260509101700 53 299 0.0 0.0 0.00 0.00 0.00 73 1001.2
20260509101200 53 299 0.0 0.0 0.00 0.00 0.00 72 1001.4
20260509100700 53 299 0.0 0.0 0.00 0.00 0.00 72 1001.6
20260509100201 53 299 0.0 0.0 0.00 0.00 0.00 70 1001.4
20260509095659 53 299 0.0 0.0 0.00 0.00 0.00 69 1001.7
20260509095200 53 299 0.0 0.0 0.00 0.00 0.00 69 1001.9
20260509094659 53 299 0.0 0.0 0.00 0.00 0.00 68 1002.0
20260509094159 53 299 0.0 0.0 0.00 0.00 0.00 67 1002.0
20260509093659 53 323 0.0 0.0 0.00 0.00 0.00 67 1002.1
20260509093200 53 323 0.0 0.0 0.00 0.00 0.00 67 1002.0
20260509092700 53 316 0.0 0.0 0.00 0.00 0.00 66 1001.9
20260509092201 54 326 0.0 6.0 0.00 0.00 0.00 66 1002.0
20260509091700 54 358 0.0 6.0 0.00 0.00 0.00 65 1001.8
20260509091200 53 312 7.0 8.0 0.00 0.00 0.00 65 1001.8
20260509090700 53 358 0.0 6.0 0.00 0.00 0.00 64 1001.8
20260509090200 53 326 0.0 3.0 0.00 0.00 0.00 63 1001.6
20260509085659 53 317 0.0 0.0 0.00 0.00 0.00 62 1001.5
20260509085200 53 340 0.0 0.0 0.00 0.00 0.00 62 1001.5
20260509084659 53 343 6.0 6.0 0.00 0.00 0.00 62 1001.5
20260509084159 53 296 0.0 5.0 0.00 0.00 0.00 62 1001.4
20260509083159 52 274 0.0 0.0 0.00 0.00 0.00 64 1001.4
20260509082201 51 258 0.0 0.0 0.00 0.00 0.00 66 1001.4
20260509081700 51 288 7.0 9.0 0.00 0.00 0.00 69 1001.2
20260509081200 51 341 4.0 8.0 0.00 0.00 0.00 69 1000.6
20260509080700 51 298 0.0 0.0 0.00 0.00 0.00 70 1000.5
20260509080159 51 298 0.0 0.0 0.00 0.00 0.00 68 1000.2
20260509075701 51 298 0.0 0.0 0.00 0.00 0.00 65 1000.1
20260509075201 51 298 0.0 0.0 0.00 0.00 0.00 64 1000.2
20260509074700 51 298 0.0 0.0 0.00 0.00 0.00 64 1000.1
20260509074200 51 298 0.0 0.0 0.00 0.00 0.00 64 1000.0
20260509073659 51 298 0.0 0.0 0.00 0.00 0.00 64 999.9
20260509073200 51 298 0.0 0.0 0.00 0.00 0.00 63 1000.0
20260509072201 51 298 0.0 0.0 0.00 0.00 0.00 62 1000.1
20260509071659 51 298 0.0 0.0 0.00 0.00 0.00 62 1000.3
20260509071159 51 298 0.0 0.0 0.00 0.00 0.00 61 1000.3
20260509070659 52 298 0.0 0.0 0.00 0.00 0.00 61 1000.5
20260509070159 52 298 0.0 0.0 0.00 0.00 0.00 61 1000.5
20260509065659 52 298 0.0 0.0 0.00 0.00 0.00 60 1000.4
20260509065159 52 298 0.0 0.0 0.00 0.00 0.00 59 1000.4
20260509064159 52 298 0.0 0.0 0.00 0.00 0.00 59 1000.4
20260509063659 52 298 0.0 0.0 0.00 0.00 0.00 60 1000.5
20260509062702 52 298 0.0 0.0 0.00 0.00 0.00 60 1000.9
20260509062159 52 298 0.0 0.0 0.00 0.00 0.00 59 1000.9
20260509061159 52 298 0.0 0.0 0.00 0.00 0.00 59 1000.5
20260509060659 53 298 0.0 0.0 0.00 0.00 0.00 58 1000.8
20260509060159 53 298 0.0 0.0 0.00 0.00 0.00 57 1000.8
20260509055201 53 298 0.0 0.0 0.00 0.00 0.00 55 1000.8
20260509054200 53 298 0.0 0.0 0.00 0.00 0.00 56 1001.0
20260509053659 53 298 0.0 0.0 0.00 0.00 0.00 56 1001.3
20260509053159 53 298 0.0 0.0 0.00 0.00 0.00 56 1001.2
20260509052203 54 298 0.0 0.0 0.00 0.00 0.00 54 1001.3
20260509051159 54 298 0.0 0.0 0.00 0.00 0.00 53 1001.2
20260509050659 55 298 0.0 0.0 0.00 0.00 0.00 53 1001.3
20260509050159 55 298 0.0 0.0 0.00 0.00 0.00 53 1001.6
20260509045159 56 298 0.0 0.0 0.00 0.00 0.00 51 1001.6
20260509044200 56 298 0.0 0.0 0.00 0.00 0.00 50 1001.6
20260509043659 56 298 0.0 0.0 0.00 0.00 0.00 49 1001.7
20260509043159 57 298 0.0 0.0 0.00 0.00 0.00 49 1001.7
20260509042159 58 298 0.0 0.0 0.00 0.00 0.00 48 1001.8
20260509041159 59 298 0.0 0.0 0.00 0.00 0.00 46 1001.8
20260509040700 59 298 0.0 0.0 0.00 0.00 0.00 46 1001.8
20260509035701 60 298 0.0 0.0 0.00 0.00 0.00 45 1001.7
20260509035159 60 298 0.0 0.0 0.00 0.00 0.00 45 1001.8
20260509034159 60 330 0.0 3.0 0.00 0.00 0.00 44 1001.8
20260509032705 61 292 0.0 5.0 0.00 0.00 0.00 44 1001.7
20260509031200 62 345 5.0 9.0 0.00 0.00 0.00 43 1001.5
20260509030159 63 340 4.0 10.0 0.00 0.00 0.00 42 1001.4
20260509025702 63 315 5.0 9.0 0.00 0.00 0.00 42 1001.3
20260509025204 63 305 10.0 13.0 0.00 0.00 0.00 43 1001.3
20260509024659 64 292 0.0 9.0 0.00 0.00 0.00 43 1001.2
20260509024200 64 319 9.0 9.0 0.00 0.00 0.00 42 1001.2
20260509023200 64 322 0.0 11.0 0.00 0.00 0.00 42 1001.1
20260509022702 65 341 5.0 8.0 0.00 0.00 0.00 41 1000.9
20260509022200 65 289 6.0 9.0 0.00 0.00 0.00 41 1000.9
20260509021659 65 326 5.0 8.0 0.00 0.00 0.00 41 1000.6
20260509021159 65 267 0.0 9.0 0.00 0.00 0.00 41 1000.5
20260509020704 65 358 0.0 11.0 0.00 0.00 0.00 40 1000.4
20260509020159 66 299 6.0 15.0 0.00 0.00 0.00 39 1000.3
20260509015201 66 281 0.0 8.0 0.00 0.00 0.00 39 1000.0
20260509014702 66 260 0.0 12.0 0.00 0.00 0.00 38 1000.0
20260509014159 67 313 0.0 11.0 0.00 0.00 0.00 38 999.9
20260509013702 67 305 0.0 7.0 0.00 0.00 0.00 38 999.9
20260509013159 67 244 0.0 0.0 0.00 0.00 0.00 37 999.8
20260509012159 68 275 0.0 0.0 0.00 0.00 0.00 36 999.6
20260509011704 68 246 0.0 5.0 0.00 0.00 0.00 35 999.6
20260509011201 68 282 0.0 10.0 0.00 0.00 0.00 35 999.5
20260509010659 68 267 6.0 12.0 0.00 0.00 0.00 34 999.4
20260509010252 68 313 8.0 11.0 0.00 0.00 0.00 34 999.4
20260509010200 68 313 8.0 11.0 0.00 0.00 0.00 34 999.4
20260509005701 69 330 7.0 12.0 0.00 0.00 0.00 34 999.3
20260509005201 69 354 6.0 9.0 0.00 0.00 0.00 34 999.4
20260509004702 69 2 0.0 9.0 0.00 0.00 0.00 34 999.3
20260509004159 69 317 5.0 19.0 0.00 0.00 0.00 34 999.2